Location: B?ezina
(49.8085°N, 13.6013°E)
Time: 20:20:43
(UTC+00:00)

Cosmos 1812 Rocket - Pass Details

Date: 19 May 2025
Orbit: 601 x 624 km, 82.5° (Epoch: 19 June)

Event Time Altitude Azimuth Distance (km) Brightness Sun altitude
Exits shadow 20:48:59 18° 184° (S) 1,508 5.1 -14.3°
Maximum altitude 20:52:11 81° 99° (E) 617 3.4 -14.5°
Drops below altitude 10° 20:56:31 10° 12° (NNE) 1,960 6.8 -14.9°
Sets 20:58:45 0° 11° (NNE) 2,870 7.8 -15.1°
